Home   Weather   Bruck an der Leitha   Past weeks

Flag for Austria Past Weather in Bruck an der Leitha, Lower Austria, Austria — Yesterday and Last 2 Weeks

46 °F

Low clouds.

Feels Like: 44 °F
Forecast: 49 / 63 °F
Wind: 5 mph from Southeast

Location: Wien / Schwechat-Flughafen

Current Time: Oct 24, 2016 at 7:17:59 AM

Latest Report: Oct 24, 2016 at 6:00 AM

Visibility: 4 mi

Pressure: 30.07 "Hg

Humidity: 95%

Dew Point: 45 °F

Location of Bruck an der LeithaLocation

Past Weather in Bruck an der Leitha — Graph


Bruck an der Leitha Temperature Yesterday

Maximum temperature yesterday: 54 °F (at 5:00 PM)
Minimum temperature yesterday: 41 °F (at 1:00 AM)
Average temperature yesterday: 45 °F

High & Low Weather Summary for the Past Weeks

High65 °F (Oct 16, 3:00 PM)100% (Oct 20, 11:00 PM)30.37 "Hg (Oct 20, 11:00 PM)
Low37 °F (Oct 22, 8:00 AM)53% (Oct 22, 2:00 PM)29.91 "Hg (Oct 12, 4:00 AM)
Average48 °F87%30.10 "Hg
* Reported Oct 9 6:00 AM — Oct 24 6:00 AM, Bruck an der Leitha, Weather by CustomWeather, © 2016

Note: Actual official high and low records may vary slightly from our data, if they occured in-between our weather recording intervals... More about our weather records


Bruck an der Leitha Weather History for the Previous 24 Hours

Scroll right to see more
Time TempWeatherWind HumidityBarometerVisibility
6:00 AM
Mon, Oct 24
46 °FLow clouds.5 mph95%30.07 "Hg4 mi
5:00 AM46 °FLow clouds.3 mph95%30.06 "Hg4 mi
4:00 AM46 °FLow clouds.5 mph94%30.06 "Hg4 mi
3:00 AM46 °FLow clouds.6 mph93%30.05 "Hg4 mi
2:00 AM46 °FLow clouds.6 mph92%30.05 "Hg5 mi
1:00 AM47 °FLow clouds.7 mph91%30.05 "Hg6 mi
12:00 AM47 °FLow clouds.8 mph90%30.04 "Hg6 mi
11:00 PM
Sun, Oct 23
47 °FOvercast.10 mph89%30.03 "Hg6 mi
10:00 PM48 °FPassing clouds.10 mph87%30.03 "Hg6 mi
9:00 PM49 °FPassing clouds.7 mph86%30.03 "Hg7 mi
8:00 PM48 °FPassing clouds.7 mph88%30.03 "Hg6 mi
7:00 PM51 °FPassing clouds.5 mph83%30.03 "Hg11 mi
6:00 PM52 °FPassing clouds.7 mph80%30.02 "Hg22 mi
5:00 PM54 °FPassing clouds.9 mph75%30.01 "Hg18 mi
4:00 PM54 °FPartly sunny.7 mph76%30.01 "Hg16 mi
2:00 PM47 °FOvercast.7 mph89%30.05 "Hg9 mi
1:00 PM45 °FLow clouds.7 mph90%30.05 "Hg6 mi
12:00 PM44 °FLow clouds.9 mph94%30.07 "Hg3 mi
11:00 AM44 °FLow clouds.7 mph95%30.06 "Hg4 mi
10:00 AM43 °FLow clouds.7 mph96%30.06 "Hg2 mi
9:00 AM42 °FLow clouds.6 mph97%30.06 "Hg2 mi
8:00 AM42 °FLow clouds.7 mph97%30.05 "Hg2 mi
7:00 AM42 °FLow clouds.7 mph96%30.04 "Hg2 mi
Weather by CustomWeather, © 2016

See weather overviewHow to use our weather pages